Regional Weather Roundup
Issued by NWS Bismarck, ND

Home | Current Version | Previous Version | Text Only | Print | Product List | Glossary On
Versions: 1 2 3 4 5 6 7 8 9 10 11 12 13 14 15 16 17 18 19 20 21 22 23 24 25 26 27 28 29 30 31 32 33 34 35 36 37 38 39 40 41 42 43 44 45 46 47 48 49 50
000
ASUS43 KBIS 281710
RWRBIS

NWR BROADCAST TEXT
NATIONAL WEATHER SERVICE BISMARCK ND
1200 PM CDT THU MAY 28 2015

NOTE: "FAIR" INDICATES FEW OR NO CLOUDS BELOW 12,000 FEET WITH NO
SIGNIFICANT WEATHER AND/OR OBSTRUCTIONS TO VISIBILITY.


CITY           SKY/WX    TMP DP  RH WIND       PRES   REMARKS
WILLISTON      PTSUNNY   67  56  67 N12       29.90R
MINOT          PTSUNNY   67  55  65 W6        29.85S
MINOT AFB      CLOUDY    69  69  97 W7        29.84S
BISMARCK       CLOUDY    69  59  70 SW5       29.87S
DICKINSON      PTSUNNY   70  56  61 W12       29.89S
GARRISON         N/A     68  59  73 W9        29.85F
HETTINGER ARPT PTSUNNY   69  57  65 NW8       29.92F
JAMESTOWN      PTSUNNY   73  61  65 S13       29.85S
BEACH          FAIR      66  57  72 W10       29.93S
CARRINGTON     FAIR      72  68  88 SW8       29.86S
CROSBY         CLOUDY    63  63 100 N9        29.91R
HARVEY         FAIR      68  59  73 SW5       29.85S
HAZEN          FAIR      68  57  68 W10       29.87F
LINTON         FAIR      70  63  78 W7        29.89R
MANDAN         FAIR      68  59  73 W5        29.88S
OAKES            N/A     75  64  69 S22G28    29.87S
STANLEY        CLOUDY    61  61 100 NW9       29.91R
WATFORD CITY   FAIR      68  57  68 NW12      29.87S
$$

CITY           SKY/WX    TMP DP  RH WIND       PRES   REMARKS
GRAND FORKS    PTSUNNY   69  61  75 S10       29.86F
GRAND FORKS AF MOSUNNY   70  60  69 S15       29.86F
DEVILS LAKE    PTSUNNY   70  57  64 SW12      29.85S
FARGO          PTSUNNY   74  63  68 S15       29.87F
CANDO          CLOUDY    66  59  77 S6        29.86S
CAVALIER       CLOUDY    66  61  82 SE7       29.87F
GRAFTON        CLOUDY    68  63  83 S7        29.87F
LANGDON        CLOUDY    70  59  68 S13       29.87S
ROLLA          CLOUDY    63  63 100 SW6       29.87F
WALHALLA         N/A     64  64 100 MISG      29.87F
$$

CITY           SKY/WX    TMP DP  RH WIND       PRES   REMARKS
ABERDEEN       SUNNY     77  61  57 S18G29    29.88F
MOBRIDGE       MOSUNNY   71  61  70 CALM      29.85S
BUFFALO          N/A     69  53  56 NW15      29.87S
RAPID CITY     MOSUNNY   70  53  54 NE13G22   29.95R
GLASGOW        MOSUNNY   70  52  52 N12G17    29.93S
SIDNEY         MOSUNNY   72  54  53 CALM      29.89S
WOLF POINT     PTSUNNY   66  58  75 VRB6      29.92R
GLENDIVE       MOSUNNY   70  55  60 NW9       29.92S
MILES CITY     MOSUNNY   70  53  54 NW14      29.95S
BAKER          PTSUNNY   69  52  54 NW10      29.95S
$$

CITY           SKY/WX    TMP DP  RH WIND       PRES   REMARKS
BILLINGS       PTSUNNY   66  48  52 NW6       30.03S
GREAT FALLS    RAIN      51  49  92 N5        30.11R FOG
REGINA         PTSUNNY   70  52  52 NW9       29.91F
ESTEVAN        CLOUDY    61  57  88 NE6       29.91R FOG
$$



USA.gov is the U.S. government's official web portal to all federal, state and local government web resources and services.